Clovis, NM

6:49 AM MDT on April 23, 2017 (GMT -0600)
Clovis Municipal

Weather History for KCVN - February, 2014

Change the Weather History Date:

Monday, February 24, 2014

  Actual Average Record
Temperature  
Mean Temperature 48 °F -  
Max Temperature 73 °F 58 °F 79 °F (1917)
Min Temperature 24 °F 28 °F 4 °F (1965)
Degree Days  
Heating Degree Days 16    
Moisture  
Dew Point 20 °F    
Average Humidity 40    
Maximum Humidity 74    
Minimum Humidity 13    
Precipitation  
Precipitation 0.00 in - - ()
Sea Level Pressure  
Sea Level Pressure 30.05 in    
Wind  
Wind Speed 10 mph (SW)    
Max Wind Speed 26 mph    
Max Gust Speed 31 mph    
Visibility 10 miles    
Events      
Averages and records for this station are not official NWS values.
T = Trace of Precipitation, MM = Missing Value Source: NWS Daily Summary

Daily Weather History Graph

Daily Weather History Graph

Search for Another Location

Airport or City:

Trip Planner

Search our weather history database for the weather conditions in past years. The results will help you decide how hot, cold, wet, or windy it might be!

Date:

Astronomy

Feb. 24, 2014 Rise Set
Actual Time 6:27 AM MST 5:44 PM MST
Civil Twilight 6:02 AM MST 6:09 PM MST
Nautical Twilight 5:32 AM MST 6:38 PM MST
Astronomical Twilight 5:03 AM MST 7:07 PM MST
Moon 2:20 AM MST (2/24) 12:55 PM MST (2/24)
Length of Visible Light 12h 07m
Length of Day
11h 16m
Waning Crescent, 27% of the Moon is Illuminated
Feb 24
Waning Crescent
Mar 1
New
Mar 8
First Quarter
Mar 16
Full
Mar 23
Last Quarter

Hourly Weather History & Observations

Time (MST) Temp. Windchill Dew Point Humidity Pressure Visibility Wind Dir Wind Speed Gust Speed Precip Events Conditions
12:15 AM 35.6 °F 29.2 °F 19.4 °F 52% 30.13 in 10.0 mi ESE 8.1 mph - N/A   Clear
12:35 AM 33.8 °F 28.6 °F 19.4 °F 56% 30.13 in 10.0 mi ESE 5.8 mph - N/A   Clear
12:55 AM 33.8 °F 30.8 °F 19.4 °F 56% 30.14 in 10.0 mi East 3.5 mph - N/A   Clear
1:15 AM 30.2 °F 22.6 °F 19.4 °F 64% 30.13 in 10.0 mi ESE 8.1 mph - N/A   Clear
1:35 AM 30.2 °F 21.9 °F 17.6 °F 60% 30.12 in 10.0 mi SE 9.2 mph - N/A   Clear
1:55 AM 32.0 °F 25.6 °F 19.4 °F 60% 30.11 in 10.0 mi ESE 6.9 mph - N/A   Clear
2:15 AM 28.4 °F 20.4 °F 17.6 °F 64% 30.11 in 10.0 mi SE 8.1 mph - N/A   Clear
2:35 AM 28.4 °F 21.2 °F 19.4 °F 69% 30.11 in 10.0 mi SE 6.9 mph - N/A   Clear
2:55 AM 28.4 °F 22.2 °F 17.6 °F 64% 30.10 in 10.0 mi ESE 5.8 mph - N/A   Clear
3:15 AM 28.4 °F 23.3 °F 17.6 °F 64% 30.10 in 10.0 mi SE 4.6 mph - N/A   Clear
3:35 AM 28.4 °F 23.3 °F 17.6 °F 64% 30.10 in 10.0 mi SSE 4.6 mph - N/A   Clear
3:55 AM 28.4 °F 23.3 °F 17.6 °F 64% 30.11 in 10.0 mi NE 4.6 mph - N/A   Clear
4:15 AM 24.8 °F 17.9 °F 17.6 °F 74% 30.11 in 10.0 mi NNE 5.8 mph - N/A   Clear
4:35 AM 26.6 °F 21.2 °F 17.6 °F 69% 30.11 in 10.0 mi NE 4.6 mph - N/A   Clear
4:55 AM 26.6 °F - 17.6 °F 69% 30.11 in 10.0 mi Calm Calm - N/A   Clear
5:15 AM 26.6 °F 22.6 °F 19.4 °F 74% 30.11 in 10.0 mi East 3.5 mph - N/A   Clear
5:35 AM 26.6 °F 22.6 °F 17.6 °F 69% 30.11 in 10.0 mi East 3.5 mph - N/A   Clear
5:55 AM 26.6 °F 21.2 °F 17.6 °F 69% 30.11 in 10.0 mi SSE 4.6 mph - N/A   Clear
6:15 AM 26.6 °F 22.6 °F 19.4 °F 74% 30.11 in 10.0 mi SSW 3.5 mph - N/A   Clear
6:35 AM 24.8 °F 17.9 °F 15.8 °F 69% 30.11 in 10.0 mi SSW 5.8 mph - N/A   Clear
6:55 AM 26.6 °F 20.0 °F 17.6 °F 69% 30.11 in 10.0 mi SSW 5.8 mph - N/A   Clear
7:15 AM 28.4 °F 23.3 °F 19.4 °F 69% 30.12 in 10.0 mi SSW 4.6 mph - N/A   Clear
7:35 AM 30.2 °F 24.3 °F 19.4 °F 64% 30.13 in 10.0 mi SSW 5.8 mph - N/A   Clear
7:55 AM 30.2 °F 23.4 °F 21.2 °F 69% 30.13 in 10.0 mi SSW 6.9 mph - N/A   Clear
8:15 AM 32.0 °F 26.4 °F 21.2 °F 64% 30.13 in 10.0 mi SSW 5.8 mph - N/A   Clear
8:35 AM 35.6 °F 31.7 °F 21.2 °F 56% 30.14 in 10.0 mi South 4.6 mph - N/A   Clear
8:55 AM 37.4 °F 30.8 °F 24.8 °F 60% 30.14 in 10.0 mi SSW 9.2 mph - N/A   Clear
9:15 AM 39.2 °F 31.6 °F 24.8 °F 56% 30.13 in 10.0 mi SW 12.7 mph - N/A   Clear
9:35 AM 39.2 °F 30.8 °F 24.8 °F 56% 30.13 in 10.0 mi SSW 15.0 mph - N/A   Clear
9:55 AM 42.8 °F 35.8 °F 26.6 °F 53% 30.12 in 10.0 mi SW 13.8 mph - N/A   Clear
10:15 AM 44.6 °F 38.1 °F 26.6 °F 49% 30.12 in 10.0 mi SW 13.8 mph 20.7 mph N/A   Clear
10:35 AM 48.2 °F - 28.4 °F 46% 30.11 in 10.0 mi SW 16.1 mph 20.7 mph N/A   Clear
10:55 AM 51.8 °F - 28.4 °F 41% 30.10 in 10.0 mi WSW 17.3 mph - N/A   Clear
11:15 AM 55.4 °F - 28.4 °F 36% 30.09 in 10.0 mi WSW 16.1 mph 24.2 mph N/A   Clear
11:35 AM 59.0 °F - 28.4 °F 31% 30.08 in 10.0 mi WSW 18.4 mph 24.2 mph N/A   Clear
11:55 AM 62.6 °F - 28.4 °F 27% 30.07 in 10.0 mi SW 18.4 mph - N/A   Clear
12:15 PM 64.4 °F - 28.4 °F 26% 30.05 in 10.0 mi SW 17.3 mph - N/A   Clear
12:35 PM 66.2 °F - 26.6 °F 23% 30.04 in 10.0 mi WSW 16.1 mph 19.6 mph N/A   Clear
12:55 PM 69.8 °F - 24.8 °F 18% 30.02 in 10.0 mi WSW 18.4 mph 26.5 mph N/A   Clear
1:15 PM 69.8 °F - 21.2 °F 16% 30.00 in 10.0 mi West 20.7 mph 26.5 mph N/A   Clear
1:35 PM 71.6 °F - 21.2 °F 15% 29.99 in 10.0 mi West 21.9 mph 29.9 mph N/A   Clear
1:55 PM 71.6 °F - 21.2 °F 15% 29.98 in 10.0 mi West 24.2 mph 27.6 mph N/A   Clear
2:15 PM 71.6 °F - 19.4 °F 14% 29.98 in 10.0 mi West 25.3 mph 29.9 mph N/A   Clear
2:35 PM 71.6 °F - 19.4 °F 14% 29.97 in 10.0 mi WSW 21.9 mph 27.6 mph N/A   Clear
2:55 PM 71.6 °F - 19.4 °F 14% 29.96 in 10.0 mi WSW 18.4 mph 31.1 mph N/A   Clear
3:15 PM 73.4 °F - 19.4 °F 13% 29.96 in 10.0 mi WSW 26.5 mph 31.1 mph N/A   Clear
3:35 PM 73.4 °F - 19.4 °F 13% 29.96 in 10.0 mi West 19.6 mph 31.1 mph N/A   Clear
3:55 PM 71.6 °F - 19.4 °F 14% 29.96 in 10.0 mi West 24.2 mph 31.1 mph N/A   Clear
4:15 PM 71.6 °F - 19.4 °F 14% 29.95 in 10.0 mi West 20.7 mph 28.8 mph N/A   Clear
4:35 PM 71.6 °F - 17.6 °F 13% 29.95 in 10.0 mi WSW 18.4 mph 24.2 mph N/A   Clear
4:55 PM 69.8 °F - 19.4 °F 15% 29.95 in 10.0 mi WSW 18.4 mph 21.9 mph N/A   Clear
5:15 PM 69.8 °F - 17.6 °F 14% 29.96 in 10.0 mi WSW 15.0 mph 20.7 mph N/A   Clear
5:35 PM 64.4 °F - 17.6 °F 16% 29.96 in 10.0 mi WSW 10.4 mph - N/A   Clear
5:55 PM 59.0 °F - 17.6 °F 20% 29.97 in 10.0 mi SW 10.4 mph - N/A   Clear
6:15 PM 55.4 °F - 17.6 °F 23% 29.97 in 10.0 mi SW 8.1 mph - N/A   Clear
6:35 PM 55.4 °F - 19.4 °F 25% 29.98 in 10.0 mi West 8.1 mph - N/A   Clear
6:55 PM 55.4 °F - 17.6 °F 23% 29.99 in 10.0 mi WSW 9.2 mph - N/A   Clear
7:15 PM 53.6 °F - 17.6 °F 24% 30.00 in 10.0 mi SW 12.7 mph - N/A   Clear
7:35 PM 53.6 °F - 17.6 °F 24% 30.00 in 10.0 mi WSW 11.5 mph - N/A   Clear
7:55 PM 51.8 °F - 17.6 °F 26% 30.01 in 10.0 mi WSW 11.5 mph - N/A   Clear
8:15 PM 53.6 °F - 17.6 °F 24% 30.01 in 10.0 mi West 11.5 mph - N/A   Clear
8:35 PM 53.6 °F - 17.6 °F 24% 30.01 in 10.0 mi West 11.5 mph - N/A   Clear
8:55 PM 55.4 °F - 17.6 °F 23% 30.01 in 10.0 mi WSW 12.7 mph - N/A   Clear
9:15 PM 51.8 °F - 15.8 °F 24% 30.02 in 10.0 mi SW 12.7 mph - N/A   Clear
9:35 PM 51.8 °F - 17.6 °F 26% 30.02 in 10.0 mi WSW 13.8 mph - N/A   Clear
9:55 PM 51.8 °F - 15.8 °F 24% 30.02 in 10.0 mi WSW 13.8 mph - N/A   Clear
10:15 PM 50.0 °F - 15.8 °F 26% 30.03 in 10.0 mi WSW 13.8 mph - N/A   Clear
10:35 PM 48.2 °F - 17.6 °F 30% 30.03 in 10.0 mi West 12.7 mph - N/A   Clear
10:55 PM 50.0 °F - 17.6 °F 28% 30.03 in 10.0 mi West 10.4 mph - N/A   Clear
11:15 PM 51.8 °F - 17.6 °F 26% 30.03 in 10.0 mi WSW 13.8 mph - N/A   Clear
11:35 PM 51.8 °F - 19.4 °F 28% 30.03 in 10.0 mi West 13.8 mph - N/A   Clear
11:55 PM 51.8 °F - 19.4 °F 28% 30.04 in 10.0 mi West 12.7 mph - N/A   Clear